{"data":{"norad_id":48323,"epoch":"2026-05-25T03:42:27.402912Z","epoch_age_seconds":51898,"freshness":"FRESH","line1":"1 48323U 21036AZ  26145.15448383  .00001051  00000+0  45622-4 0  9995","line2":"2 48323  53.1596 105.4025 0001250  81.9891 278.1252 15.31706473279756","mean_motion":15.31706473,"eccentricity":0.000125,"inclination_deg":53.1596,"raan_deg":105.4025,"arg_perigee_deg":81.9891,"mean_anomaly_deg":278.1252,"bstar":4.5622e-5,"rev_number":27975,"period_min":94.012790660838,"perigee_km":469.86459240498,"apogee_km":471.57680682988,"semimajor_km":6848.8576996174,"source":"CELESTRAK","updated_at":"2026-05-25T13:38:16.681770Z"}}